Time,TemperatureF,DewpointF,PressureIn,WindDirection,WindDirectionDegrees,WindSpeedMPH,WindSpeedGustMPH,Humidity,HourlyPrecipIn,Conditions,Clouds,dailyrainin,SoftwareType,DateUTC
2013-02-24 00:00:00,34.3,33.8,29.78,NNE,29,4.0,4.5,98,0.00,,,0.16,VWS V13.00,2013-02-24 05:00:00,
2013-02-24 00:05:00,34.3,33.8,29.75,NE,34,2.7,4.0,98,0.00,,,0.00,VWS V13.00,2013-02-24 05:05:00,
2013-02-24 00:10:00,34.3,33.8,29.75,NE,34,3.1,4.0,98,0.00,,,0.00,VWS V13.00,2013-02-24 05:10:00,
2013-02-24 00:15:00,34.3,33.8,29.75,NE,38,3.6,4.0,98,0.00,,,0.00,VWS V13.00,2013-02-24 05:15:00,
2013-02-24 00:20:00,34.3,33.8,29.75,NE,38,3.1,4.0,98,0.00,,,0.00,VWS V13.00,2013-02-24 05:20:00,
2013-02-24 00:25:00,34.2,33.7,29.75,NE,35,4.9,4.9,98,0.00,,,0.00,VWS V13.00,2013-02-24 05:25:00,
2013-02-24 00:30:00,34.2,33.7,29.75,NE,38,2.7,5.4,98,0.00,,,0.00,VWS V13.00,2013-02-24 05:30:00,
2013-02-24 00:35:00,34.0,33.5,29.75,NE,38,3.6,5.4,98,0.00,,,0.00,VWS V13.00,2013-02-24 05:35:00,
2013-02-24 00:40:00,34.0,33.5,29.75,NE,38,3.1,4.0,98,0.00,,,0.00,VWS V13.00,2013-02-24 05:40:00,
2013-02-24 00:45:00,34.0,33.5,29.75,NE,38,3.1,4.0,98,0.00,,,0.00,VWS V13.00,2013-02-24 05:45:00,
2013-02-24 00:50:00,34.0,33.5,29.75,NE,38,3.1,4.0,98,0.00,,,0.00,VWS V13.00,2013-02-24 05:50:00,
2013-02-24 00:56:00,34.0,33.5,29.75,NE,38,4.0,4.0,98,0.00,,,0.00,VWS V13.00,2013-02-24 05:56:00,
2013-02-24 01:01:00,34.0,33.5,29.75,NE,38,2.7,3.6,98,0.00,,,0.00,VWS V13.00,2013-02-24 06:01:00,
2013-02-24 01:06:00,34.0,33.5,29.75,NE,38,3.6,4.5,98,0.00,,,0.00,VWS V13.00,2013-02-24 06:06:00,
2013-02-24 01:11:00,34.0,33.5,29.75,NE,38,3.1,4.5,98,0.00,,,0.00,VWS V13.00,2013-02-24 06:11:00,
2013-02-24 01:16:00,34.0,33.5,29.75,NE,38,0.0,4.5,98,0.00,,,0.00,VWS V13.00,2013-02-24 06:16:00,
2013-02-24 01:21:00,34.0,33.5,29.75,NE,38,0.0,0.0,98,0.00,,,0.00,VWS V13.00,2013-02-24 06:21:00,
2013-02-24 01:26:00,34.0,33.5,29.75,NE,38,0.0,0.0,98,0.00,,,0.00,VWS V13.00,2013-02-24 06:26:00,
2013-02-24 01:31:00,33.8,33.3,29.75,NE,38,0.0,0.0,98,0.00,,,0.00,VWS V13.00,2013-02-24 06:31:00,
2013-02-24 01:36:00,33.8,33.3,29.75,NE,38,0.0,3.6,98,0.00,,,0.00,VWS V13.00,2013-02-24 06:36:00,
2013-02-24 01:41:00,33.8,33.3,29.75,NE,38,0.0,0.0,98,0.00,,,0.00,VWS V13.00,2013-02-24 06:41:00,
2013-02-24 01:46:00,33.8,33.3,29.75,NE,42,0.0,4.0,98,0.00,,,0.00,VWS V13.00,2013-02-24 06:46:00,
2013-02-24 01:51:00,33.8,33.3,29.75,NE,42,0.0,4.0,98,0.00,,,0.00,VWS V13.00,2013-02-24 06:51:00,
2013-02-24 01:56:00,33.8,33.3,29.75,NE,42,2.2,4.0,98,0.00,,,0.00,VWS V13.00,2013-02-24 06:56:00,
2013-02-24 02:01:00,33.8,33.3,29.78,NE,42,3.1,4.0,98,0.00,,,0.00,VWS V13.00,2013-02-24 07:01:00,
2013-02-24 02:06:00,33.8,33.3,29.78,NE,42,3.1,4.0,98,0.00,,,0.00,VWS V13.00,2013-02-24 07:06:00,
2013-02-24 02:11:00,33.8,33.3,29.78,NE,42,2.2,4.0,98,0.00,,,0.00,VWS V13.00,2013-02-24 07:11:00,
2013-02-24 02:16:00,33.8,33.3,29.75,NE,42,2.7,4.0,98,0.00,,,0.00,VWS V13.00,2013-02-24 07:16:00,
2013-02-24 02:21:00,33.8,33.3,29.75,NE,42,4.0,4.0,98,0.00,,,0.00,VWS V13.00,2013-02-24 07:21:00,
2013-02-24 02:27:00,33.8,33.3,29.75,NE,42,3.6,4.0,98,0.00,,,0.00,VWS V13.00,2013-02-24 07:27:00,
2013-02-24 02:32:00,33.8,33.3,29.75,NE,42,3.6,4.0,98,0.00,,,0.00,VWS V13.00,2013-02-24 07:32:00,
2013-02-24 02:37:00,33.8,33.3,29.75,NNE,31,2.7,4.0,98,0.00,,OVC007,0.00,VWS V13.00,2013-02-24 07:37:00,
2013-02-24 02:42:00,33.8,33.3,29.75,NNE,31,2.7,3.6,98,0.00,,OVC007,0.00,VWS V13.00,2013-02-24 07:42:00,
2013-02-24 02:47:00,33.8,33.3,29.75,NNE,31,3.6,4.0,98,0.00,,OVC007,0.00,VWS V13.00,2013-02-24 07:47:00,
2013-02-24 02:52:00,33.8,33.3,29.75,NNE,31,3.1,4.0,98,0.00,,OVC007,0.00,VWS V13.00,2013-02-24 07:52:00,
2013-02-24 02:57:00,33.6,33.1,29.75,NNE,31,3.1,4.0,98,0.00,,OVC007,0.00,VWS V13.00,2013-02-24 07:57:00,
2013-02-24 03:02:00,33.6,33.1,29.75,NNE,31,3.6,3.6,98,0.00,,OVC007,0.00,VWS V13.00,2013-02-24 08:02:00,
2013-02-24 03:07:00,33.6,33.1,29.75,NNE,32,3.1,3.6,98,0.00,,OVC007,0.00,VWS V13.00,2013-02-24 08:07:00,
2013-02-24 03:12:00,33.6,33.1,29.75,NNE,26,3.1,4.0,98,0.00,,OVC007,0.00,VWS V13.00,2013-02-24 08:12:00,
2013-02-24 03:17:00,33.6,33.1,29.75,NE,43,3.1,4.0,98,0.00,,OVC007,0.00,VWS V13.00,2013-02-24 08:17:00,
2013-02-24 03:22:00,33.8,33.3,29.75,NE,43,2.7,3.1,98,0.00,,OVC007,0.00,VWS V13.00,2013-02-24 08:22:00,
2013-02-24 03:27:00,33.8,33.3,29.75,NE,43,3.6,3.6,98,0.00,,OVC007,0.00,VWS V13.00,2013-02-24 08:27:00,
2013-02-24 03:32:00,33.6,33.1,29.75,NE,43,3.6,4.5,98,0.00,,,0.00,VWS V13.00,2013-02-24 08:32:00,
2013-02-24 03:37:00,33.6,33.1,29.75,NE,48,3.6,4.5,98,0.00,,,0.00,VWS V13.00,2013-02-24 08:37:00,
2013-02-24 03:42:00,33.6,33.1,29.75,NE,48,3.1,3.6,98,0.00,,,0.00,VWS V13.00,2013-02-24 08:42:00,
2013-02-24 03:47:00,33.6,33.1,29.75,NE,48,0.0,4.0,98,0.00,,,0.00,VWS V13.00,2013-02-24 08:47:00,
2013-02-24 03:52:00,33.6,33.1,29.75,NE,48,0.0,4.0,98,0.00,,,0.00,VWS V13.00,2013-02-24 08:52:00,
2013-02-24 03:57:00,33.6,33.1,29.75,NE,48,0.0,4.0,98,0.00,,,0.00,VWS V13.00,2013-02-24 08:57:00,
2013-02-24 04:02:00,33.6,33.1,29.75,NE,48,0.0,0.0,98,0.00,,,0.00,VWS V13.00,2013-02-24 09:02:00,
2013-02-24 04:07:00,33.6,33.1,29.75,NE,48,2.2,2.2,98,0.00,,,0.00,VWS V13.00,2013-02-24 09:07:00,
2013-02-24 04:12:00,33.6,33.1,29.75,NE,48,3.1,3.6,98,0.00,,,0.00,VWS V13.00,2013-02-24 09:12:00,
2013-02-24 04:17:00,33.4,32.9,29.75,NNE,27,3.1,4.0,98,0.00,,,0.00,VWS V13.00,2013-02-24 09:17:00,
2013-02-24 04:22:00,33.4,32.9,29.75,NNE,32,4.0,4.0,98,0.00,,,0.00,VWS V13.00,2013-02-24 09:22:00,
2013-02-24 04:28:00,33.4,32.9,29.75,NNE,32,2.7,4.5,98,0.00,,,0.00,VWS V13.00,2013-02-24 09:28:00,
2013-02-24 04:33:00,33.4,32.9,29.72,NNE,27,2.7,4.9,98,0.00,,,0.00,VWS V13.00,2013-02-24 09:33:00,
2013-02-24 04:38:00,33.4,32.9,29.72,NNE,32,3.6,4.9,98,0.00,,OVC010,0.00,VWS V13.00,2013-02-24 09:38:00,
2013-02-24 04:43:00,33.4,32.9,29.72,NE,35,3.1,4.9,98,0.00,,OVC010,0.00,VWS V13.00,2013-02-24 09:43:00,
2013-02-24 04:48:00,33.4,32.9,29.72,NE,35,3.6,4.9,98,0.00,,OVC010,0.00,VWS V13.00,2013-02-24 09:48:00,
2013-02-24 04:53:00,33.6,33.1,29.72,NE,35,3.1,4.9,98,0.00,,OVC010,0.00,VWS V13.00,2013-02-24 09:53:00,
2013-02-24 04:58:00,33.6,33.1,29.72,NNE,24,4.9,4.9,98,0.00,,OVC010,0.00,VWS V13.00,2013-02-24 09:58:00,
2013-02-24 05:03:00,33.6,33.1,29.72,NNE,26,4.0,4.9,98,0.00,,OVC010,0.00,VWS V13.00,2013-02-24 10:03:00,
2013-02-24 05:08:00,33.6,33.1,29.72,NNE,25,3.1,5.8,98,0.00,,OVC010,0.00,VWS V13.00,2013-02-24 10:08:00,
2013-02-24 05:13:00,33.6,33.1,29.72,NNE,32,4.0,5.8,98,0.00,,OVC010,0.00,VWS V13.00,2013-02-24 10:13:00,
2013-02-24 05:18:00,33.6,33.1,29.72,NNE,32,2.7,5.8,98,0.00,,OVC010,0.00,VWS V13.00,2013-02-24 10:18:00,
2013-02-24 05:23:00,33.6,33.1,29.72,NE,34,0.0,3.1,98,0.00,,OVC010,0.00,VWS V13.00,2013-02-24 10:23:00,
2013-02-24 05:28:00,33.6,33.1,29.72,NE,34,0.0,3.1,98,0.00,,OVC010,0.00,VWS V13.00,2013-02-24 10:28:00,
2013-02-24 05:33:00,33.6,33.1,29.72,NE,34,0.0,3.1,98,0.00,,OVC010,0.00,VWS V13.00,2013-02-24 10:33:00,
2013-02-24 05:38:00,33.6,33.1,29.72,NE,50,2.2,3.6,98,0.00,,OVC010,0.00,VWS V13.00,2013-02-24 10:38:00,
2013-02-24 05:43:00,33.6,33.1,29.72,NE,50,0.0,2.7,98,0.00,,OVC010,0.00,VWS V13.00,2013-02-24 10:43:00,
2013-02-24 05:48:00,33.6,33.1,29.72,NE,50,0.0,2.7,98,0.00,,OVC010,0.00,VWS V13.00,2013-02-24 10:48:00,
2013-02-24 05:54:00,33.6,33.1,29.72,NE,50,0.0,2.7,98,0.00,,OVC010,0.00,VWS V13.00,2013-02-24 10:54:00,
2013-02-24 05:59:00,33.6,33.1,29.72,NE,50,0.0,2.7,98,0.00,,OVC010,0.00,VWS V13.00,2013-02-24 10:59:00,
2013-02-24 06:04:00,33.8,33.3,29.72,NE,50,0.0,2.2,98,0.00,,OVC010,0.00,VWS V13.00,2013-02-24 11:04:00,
2013-02-24 06:09:00,33.8,33.3,29.72,NE,50,0.0,2.2,98,0.00,,OVC010,0.00,VWS V13.00,2013-02-24 11:09:00,
2013-02-24 06:14:00,33.8,33.3,29.72,NE,50,0.0,2.2,98,0.00,,OVC010,0.00,VWS V13.00,2013-02-24 11:14:00,
2013-02-24 06:19:00,33.8,33.3,29.72,NE,50,0.0,2.2,98,0.00,,OVC010,0.00,VWS V13.00,2013-02-24 11:19:00,
2013-02-24 06:24:00,33.8,33.3,29.72,NE,50,0.0,0.0,98,0.00,,OVC010,0.00,VWS V13.00,2013-02-24 11:24:00,
2013-02-24 06:29:00,33.6,33.1,29.72,NE,50,2.7,2.7,98,0.00,,OVC010,0.00,VWS V13.00,2013-02-24 11:29:00,
2013-02-24 06:34:00,33.6,33.1,29.72,NE,50,2.7,3.1,98,0.00,,,0.00,VWS V13.00,2013-02-24 11:34:00,
2013-02-24 06:39:00,33.6,33.1,29.72,NE,50,2.2,3.1,98,0.00,,,0.00,VWS V13.00,2013-02-24 11:39:00,
2013-02-24 06:44:00,33.6,33.1,29.72,NE,50,0.0,3.1,98,0.00,,,0.00,VWS V13.00,2013-02-24 11:44:00,
2013-02-24 06:49:00,33.6,33.1,29.72,NE,50,2.2,3.1,98,0.00,,,0.00,VWS V13.00,2013-02-24 11:49:00,
2013-02-24 06:54:00,33.6,33.1,29.72,NE,50,2.2,3.6,98,0.00,,,0.00,VWS V13.00,2013-02-24 11:54:00,
2013-02-24 06:59:00,33.8,33.3,29.72,NE,50,2.2,3.6,98,0.00,,,0.00,VWS V13.00,2013-02-24 11:59:00,
2013-02-24 07:04:00,33.8,33.3,29.72,NE,50,2.7,2.7,98,0.00,,,0.00,VWS V13.00,2013-02-24 12:04:00,
2013-02-24 07:10:00,33.8,33.3,29.72,NE,50,0.0,3.1,98,0.00,,,0.00,VWS V13.00,2013-02-24 12:10:00,
2013-02-24 07:15:00,33.8,33.3,29.72,NE,50,0.0,3.1,98,0.00,,,0.00,VWS V13.00,2013-02-24 12:15:00,
2013-02-24 07:20:00,34.0,33.5,29.72,NE,50,0.0,3.1,98,0.00,,,0.00,VWS V13.00,2013-02-24 12:20:00,
2013-02-24 07:25:00,34.0,33.5,29.72,NE,50,2.7,3.6,98,0.00,,,0.00,VWS V13.00,2013-02-24 12:25:00,
2013-02-24 07:30:00,34.0,33.5,29.72,NE,50,0.0,4.0,98,0.00,,,0.00,VWS V13.00,2013-02-24 12:30:00,
2013-02-24 07:35:00,34.0,33.5,29.72,NE,50,2.7,4.0,98,0.00,,,0.00,VWS V13.00,2013-02-24 12:35:00,
2013-02-24 07:40:00,34.2,33.7,29.72,NE,50,0.0,0.0,98,0.04,,,0.04,VWS V13.00,2013-02-24 12:40:00,
2013-02-24 07:45:00,34.2,33.7,29.72,NE,50,0.0,2.7,98,0.04,,,0.04,VWS V13.00,2013-02-24 12:45:00,
2013-02-24 07:50:00,34.3,33.8,29.72,ESE,106,0.0,4.0,98,0.04,,,0.04,VWS V13.00,2013-02-24 12:50:00,
2013-02-24 07:55:00,34.3,33.8,29.72,North,353,0.0,4.0,98,0.04,,,0.04,VWS V13.00,2013-02-24 12:55:00,
2013-02-24 08:00:00,34.3,33.8,29.72,NNE,33,2.2,2.7,98,0.04,,,0.04,VWS V13.00,2013-02-24 13:00:00,
2013-02-24 08:06:00,34.5,34.0,29.72,East,101,0.0,3.1,98,0.04,,,0.04,VWS V13.00,2013-02-24 13:06:00,
2013-02-24 08:11:00,34.7,34.2,29.72,East,101,0.0,3.1,98,0.04,,,0.04,VWS V13.00,2013-02-24 13:11:00,
2013-02-24 08:16:00,34.9,34.4,29.75,East,101,0.0,3.1,98,0.04,,,0.04,VWS V13.00,2013-02-24 13:16:00,
2013-02-24 08:21:00,35.1,34.5,29.75,East,101,2.7,2.7,98,0.04,,,0.04,VWS V13.00,2013-02-24 13:21:00,
2013-02-24 08:26:00,35.1,34.5,29.75,East,101,0.0,2.7,98,0.04,,,0.04,VWS V13.00,2013-02-24 13:26:00,
2013-02-24 08:31:00,35.4,34.9,29.75,East,101,0.0,2.7,98,0.04,,,0.04,VWS V13.00,2013-02-24 13:31:00,
2013-02-24 08:36:00,35.4,34.9,29.75,East,101,0.0,2.7,98,0.04,,,0.04,VWS V13.00,2013-02-24 13:36:00,
2013-02-24 08:41:00,35.6,35.1,29.75,West,277,0.0,4.0,98,0.04,,,0.04,VWS V13.00,2013-02-24 13:41:00,
2013-02-24 08:46:00,35.6,35.1,29.75,West,277,0.0,4.0,98,0.00,,,0.04,VWS V13.00,2013-02-24 13:46:00,
2013-02-24 08:51:00,35.8,35.3,29.75,West,277,2.7,4.0,98,0.00,,,0.04,VWS V13.00,2013-02-24 13:51:00,
2013-02-24 08:56:00,36.1,35.6,29.75,ESE,114,0.0,4.0,98,0.00,,,0.04,VWS V13.00,2013-02-24 13:56:00,
2013-02-24 09:01:00,36.3,35.8,29.75,South,176,0.0,0.0,98,0.00,,BKN041,0.04,VWS V13.00,2013-02-24 14:01:00,
2013-02-24 09:06:00,36.7,36.2,29.75,South,181,2.2,3.6,98,0.00,,BKN041,0.04,VWS V13.00,2013-02-24 14:06:00,
2013-02-24 09:11:00,36.7,36.2,29.75,West,279,0.0,4.0,98,0.00,,BKN041,0.04,VWS V13.00,2013-02-24 14:11:00,
2013-02-24 09:16:00,36.9,36.3,29.75,West,269,0.0,5.4,98,0.00,,BKN041,0.04,VWS V13.00,2013-02-24 14:16:00,
2013-02-24 09:21:00,37.4,36.9,29.75,West,267,2.2,2.2,98,0.00,,BKN041,0.04,VWS V13.00,2013-02-24 14:21:00,
2013-02-24 09:26:00,37.6,37.1,29.75,North,8,0.0,5.4,98,0.00,,BKN041,0.04,VWS V13.00,2013-02-24 14:26:00,
2013-02-24 09:31:00,37.9,37.4,29.75,North,0,0.0,5.4,98,0.00,,BKN041,0.04,VWS V13.00,2013-02-24 14:31:00,
2013-02-24 09:36:00,38.3,37.8,29.75,ESE,108,3.1,5.4,98,0.00,,OVC010,0.04,VWS V13.00,2013-02-24 14:36:00,
2013-02-24 09:41:00,38.5,38.0,29.75,NNE,28,0.0,0.0,98,0.00,,OVC010,0.04,VWS V13.00,2013-02-24 14:41:00,
2013-02-24 09:46:00,38.7,38.2,29.75,NNE,17,2.7,3.1,98,0.00,,OVC010,0.04,VWS V13.00,2013-02-24 14:46:00,
2013-02-24 09:51:00,39.2,38.7,29.75,NNE,31,3.6,4.0,98,0.00,,OVC010,0.04,VWS V13.00,2013-02-24 14:51:00,
2013-02-24 09:56:00,39.6,39.0,29.75,North,349,2.2,5.8,98,0.00,,OVC010,0.04,VWS V13.00,2013-02-24 14:56:00,
2013-02-24 10:01:00,39.7,39.2,29.75,East,99,3.1,3.1,98,0.00,,OVC010,0.04,VWS V13.00,2013-02-24 15:01:00,
2013-02-24 10:06:00,39.6,39.0,29.75,NW,308,0.0,3.6,98,0.00,,OVC010,0.04,VWS V13.00,2013-02-24 15:06:00,
2013-02-24 10:12:00,39.2,38.7,29.75,NE,48,0.0,4.0,98,0.00,,OVC010,0.04,VWS V13.00,2013-02-24 15:12:00,
2013-02-24 10:17:00,39.2,38.7,29.75,WSW,250,2.2,5.8,98,0.00,,OVC010,0.04,VWS V13.00,2013-02-24 15:17:00,
2013-02-24 10:22:00,39.4,38.9,29.75,North,357,3.1,4.9,98,0.00,,OVC010,0.04,VWS V13.00,2013-02-24 15:22:00,
2013-02-24 10:27:00,40.3,39.8,29.75,NNE,12,2.7,5.8,98,0.00,,OVC010,0.04,VWS V13.00,2013-02-24 15:27:00,
2013-02-24 10:32:00,40.6,40.1,29.72,SW,218,3.6,6.3,98,0.00,,OVC010,0.04,VWS V13.00,2013-02-24 15:32:00,
2013-02-24 10:37:00,41.5,41.0,29.72,NE,54,3.6,7.2,98,0.00,,OVC044,0.04,VWS V13.00,2013-02-24 15:37:00,
2013-02-24 10:42:00,41.2,40.7,29.72,South,175,0.0,2.7,98,0.00,,OVC044,0.04,VWS V13.00,2013-02-24 15:42:00,
2013-02-24 10:47:00,40.3,39.8,29.75,ESE,103,3.1,4.9,98,0.00,,OVC044,0.04,VWS V13.00,2013-02-24 15:47:00,
2013-02-24 10:52:00,39.9,39.1,29.75,East,89,3.6,4.9,97,0.00,,OVC044,0.04,VWS V13.00,2013-02-24 15:52:00,
2013-02-24 10:57:00,41.0,40.0,29.75,WSW,243,2.7,4.9,96,0.00,,OVC044,0.04,VWS V13.00,2013-02-24 15:57:00,
2013-02-24 11:02:00,41.7,40.4,29.75,NW,310,2.7,4.9,95,0.00,,OVC044,0.04,VWS V13.00,2013-02-24 16:02:00,
2013-02-24 11:07:00,41.0,39.4,29.75,WSW,258,0.0,6.3,94,0.00,,OVC044,0.04,VWS V13.00,2013-02-24 16:07:00,
2013-02-24 11:12:00,40.6,38.8,29.75,West,264,5.8,6.3,93,0.00,,OVC044,0.04,VWS V13.00,2013-02-24 16:12:00,
2013-02-24 11:17:00,40.3,38.2,29.75,SW,222,2.2,7.6,92,0.00,,OVC044,0.04,VWS V13.00,2013-02-24 16:17:00,
2013-02-24 11:22:00,41.5,38.8,29.75,SW,223,0.0,5.4,90,0.00,,OVC044,0.04,VWS V13.00,2013-02-24 16:22:00,
2013-02-24 11:27:00,40.8,37.3,29.75,West,272,3.1,10.1,87,0.00,,OVC044,0.04,VWS V13.00,2013-02-24 16:27:00,
2013-02-24 11:32:00,41.5,37.4,29.75,WNW,288,3.1,10.1,85,0.00,,OVC044,0.04,VWS V13.00,2013-02-24 16:32:00,
2013-02-24 11:37:00,41.5,36.2,29.75,North,11,2.7,10.1,81,0.00,,SCT042,0.04,VWS V13.00,2013-02-24 16:37:00,
2013-02-24 11:42:00,42.1,36.0,29.75,South,183,2.7,4.0,79,0.00,,SCT042,0.04,VWS V13.00,2013-02-24 16:42:00,
2013-02-24 11:47:00,41.2,34.5,29.75,SW,216,3.1,6.3,77,0.00,,SCT042,0.04,VWS V13.00,2013-02-24 16:47:00,
2013-02-24 11:52:00,41.0,34.0,29.75,SW,224,0.0,6.3,76,0.00,,SCT042,0.04,VWS V13.00,2013-02-24 16:52:00,
2013-02-24 11:57:00,40.8,33.5,29.75,West,281,0.0,6.3,75,0.00,,SCT042,0.04,VWS V13.00,2013-02-24 16:57:00,
2013-02-24 12:02:00,41.0,33.7,29.72,WSW,256,3.6,3.6,75,0.00,,SCT042,0.04,VWS V13.00,2013-02-24 17:02:00,
2013-02-24 12:07:00,40.8,32.8,29.72,West,260,3.6,8.3,73,0.00,,SCT042,0.04,VWS V13.00,2013-02-24 17:07:00,
2013-02-24 12:12:00,40.5,32.5,29.72,NW,326,2.2,8.3,73,0.00,,SCT042,0.04,VWS V13.00,2013-02-24 17:12:00,
2013-02-24 12:17:00,39.6,31.6,29.75,North,4,2.2,8.3,73,0.00,,SCT042,0.04,VWS V13.00,2013-02-24 17:17:00,
2013-02-24 12:22:00,39.2,31.3,29.75,North,357,0.0,3.6,73,0.00,,SCT042,0.04,VWS V13.00,2013-02-24 17:22:00,
2013-02-24 12:27:00,39.4,31.5,29.75,North,357,0.0,3.6,73,0.00,,SCT042,0.04,VWS V13.00,2013-02-24 17:27:00,
2013-02-24 12:33:00,39.6,31.6,29.72,NNW,332,2.7,4.0,73,0.00,,SCT042,0.04,VWS V13.00,2013-02-24 17:33:00,
2013-02-24 12:38:00,39.7,31.5,29.72,West,279,0.0,6.3,72,0.00,,SCT040,0.04,VWS V13.00,2013-02-24 17:38:00,
2013-02-24 12:43:00,40.1,31.5,29.72,SSE,152,0.0,3.1,71,0.00,,SCT040,0.04,VWS V13.00,2013-02-24 17:43:00,
2013-02-24 12:48:00,40.3,31.6,29.72,SSW,202,0.0,4.0,71,0.00,,SCT040,0.04,VWS V13.00,2013-02-24 17:48:00,
2013-02-24 12:53:00,39.9,30.6,29.72,NW,324,3.6,6.3,69,0.00,,SCT040,0.04,VWS V13.00,2013-02-24 17:53:00,
2013-02-24 12:58:00,39.9,30.2,29.72,West,272,3.6,10.1,68,0.00,,SCT040,0.04,VWS V13.00,2013-02-24 17:58:00,
2013-02-24 13:03:00,39.9,29.9,29.72,NW,314,5.4,5.4,67,0.00,,SCT040,0.04,VWS V13.00,2013-02-24 18:03:00,
2013-02-24 13:08:00,39.7,29.7,29.72,WNW,300,2.7,8.1,67,0.00,,SCT040,0.04,VWS V13.00,2013-02-24 18:08:00,
2013-02-24 13:13:00,39.7,29.3,29.72,SSW,197,3.6,8.1,66,0.00,,SCT040,0.04,VWS V13.00,2013-02-24 18:13:00,
2013-02-24 13:18:00,40.5,30.0,29.72,West,265,3.1,8.1,66,0.00,,SCT040,0.04,VWS V13.00,2013-02-24 18:18:00,
2013-02-24 13:23:00,40.3,29.5,29.72,WSW,250,3.6,5.8,65,0.00,,SCT040,0.04,VWS V13.00,2013-02-24 18:23:00,
2013-02-24 13:28:00,40.3,29.5,29.72,East,100,2.7,5.8,65,0.00,,SCT040,0.04,VWS V13.00,2013-02-24 18:28:00,
2013-02-24 13:33:00,40.1,28.9,29.72,West,265,5.4,14.5,64,0.00,,SCT040,0.04,VWS V13.00,2013-02-24 18:33:00,
2013-02-24 13:38:00,39.9,28.8,29.72,North,9,2.7,14.5,64,0.00,,OVC041,0.04,VWS V13.00,2013-02-24 18:38:00,
2013-02-24 13:43:00,39.7,28.6,29.72,North,8,4.0,5.4,64,0.00,,OVC041,0.04,VWS V13.00,2013-02-24 18:43:00,
2013-02-24 13:48:00,39.6,28.8,29.72,North,357,2.2,5.4,65,0.00,,OVC041,0.04,VWS V13.00,2013-02-24 18:48:00,
2013-02-24 13:53:00,39.2,28.4,29.72,North,8,3.6,5.4,65,0.00,,OVC041,0.04,VWS V13.00,2013-02-24 18:53:00,
2013-02-24 13:58:00,38.7,28.3,29.72,North,357,0.0,5.8,66,0.00,,OVC041,0.04,VWS V13.00,2013-02-24 18:58:00,
2013-02-24 14:03:00,38.8,28.5,29.75,WSW,248,0.0,3.1,66,0.00,,OVC041,0.04,VWS V13.00,2013-02-24 19:03:00,
2013-02-24 14:09:00,38.8,28.5,29.75,SW,235,2.7,8.1,66,0.00,,OVC041,0.04,VWS V13.00,2013-02-24 19:09:00,
2013-02-24 14:14:00,39.0,27.9,29.75,NW,314,2.7,8.1,64,0.00,,OVC041,0.04,VWS V13.00,2013-02-24 19:14:00,
2013-02-24 14:19:00,38.8,27.7,29.72,SW,217,0.0,8.1,64,0.00,,OVC041,0.04,VWS V13.00,2013-02-24 19:19:00,
2013-02-24 14:24:00,38.7,27.2,29.72,West,280,0.0,6.3,63,0.00,,OVC041,0.04,VWS V13.00,2013-02-24 19:24:00,
2013-02-24 14:29:00,38.7,27.2,29.72,West,281,2.7,6.3,63,0.00,,OVC041,0.04,VWS V13.00,2013-02-24 19:29:00,
2013-02-24 14:34:00,38.5,27.0,29.75,South,177,3.6,6.3,63,0.00,,OVC041,0.04,VWS V13.00,2013-02-24 19:34:00,
2013-02-24 14:39:00,38.1,26.6,29.75,NW,320,0.0,6.3,63,0.00,,OVC039,0.04,VWS V13.00,2013-02-24 19:39:00,
2013-02-24 14:44:00,38.1,26.6,29.75,South,169,0.0,3.6,63,0.00,,OVC039,0.04,VWS V13.00,2013-02-24 19:44:00,
2013-02-24 14:49:00,37.9,26.5,29.72,North,0,2.7,4.9,63,0.00,,OVC039,0.04,VWS V13.00,2013-02-24 19:49:00,
2013-02-24 14:54:00,37.6,26.5,29.72,NE,53,0.0,4.9,64,0.00,,OVC039,0.04,VWS V13.00,2013-02-24 19:54:00,
2013-02-24 14:59:00,37.6,26.5,29.72,NE,49,0.0,4.9,64,0.00,,OVC039,0.04,VWS V13.00,2013-02-24 19:59:00,
2013-02-24 15:04:00,37.2,26.2,29.75,NNW,329,0.0,8.7,64,0.00,,OVC039,0.04,VWS V13.00,2013-02-24 20:04:00,
2013-02-24 15:09:00,37.0,26.4,29.75,South,187,3.1,8.7,65,0.00,,OVC039,0.04,VWS V13.00,2013-02-24 20:09:00,
2013-02-24 15:14:00,37.0,26.4,29.75,North,357,3.6,8.7,65,0.00,,OVC039,0.04,VWS V13.00,2013-02-24 20:14:00,
2013-02-24 15:19:00,36.9,26.2,29.75,ENE,78,2.7,8.7,65,0.00,,OVC039,0.04,VWS V13.00,2013-02-24 20:19:00,
2013-02-24 15:24:00,36.5,26.2,29.75,NNW,339,0.0,4.0,66,0.00,,OVC039,0.04,VWS V13.00,2013-02-24 20:24:00,
2013-02-24 15:29:00,36.3,26.1,29.75,NNW,333,2.7,7.2,66,0.00,,OVC039,0.04,VWS V13.00,2013-02-24 20:29:00,
2013-02-24 15:34:00,35.6,25.0,29.75,WNW,302,3.6,8.1,65,0.00,,OVC039,0.04,VWS V13.00,2013-02-24 20:34:00,
2013-02-24 15:39:00,35.2,24.7,29.75,North,8,3.6,11.0,65,0.00,,OVC043,0.04,VWS V13.00,2013-02-24 20:39:00,
2013-02-24 15:44:00,35.1,24.5,29.75,NNW,345,3.1,8.3,65,0.00,,OVC043,0.04,VWS V13.00,2013-02-24 20:44:00,
2013-02-24 15:49:00,34.9,24.7,29.78,East,86,3.6,8.3,66,0.00,,OVC043,0.04,VWS V13.00,2013-02-24 20:49:00,
2013-02-24 15:54:00,34.7,24.5,29.78,SSW,192,0.0,8.3,66,0.00,,OVC043,0.04,VWS V13.00,2013-02-24 20:54:00,
2013-02-24 15:59:00,34.5,24.4,29.78,West,281,4.0,8.3,66,0.00,,OVC043,0.04,VWS V13.00,2013-02-24 20:59:00,
2013-02-24 16:05:00,34.3,24.2,29.78,North,357,2.7,4.9,66,0.00,,OVC043,0.04,VWS V13.00,2013-02-24 21:05:00,
2013-02-24 16:10:00,34.3,24.2,29.78,NNW,334,2.2,8.1,66,0.00,,OVC043,0.04,VWS V13.00,2013-02-24 21:10:00,
2013-02-24 16:15:00,34.2,24.0,29.78,NNW,348,0.0,8.1,66,0.00,,OVC043,0.04,VWS V13.00,2013-02-24 21:15:00,
2013-02-24 16:20:00,34.0,23.5,29.78,North,4,2.7,8.3,65,0.00,,OVC043,0.04,VWS V13.00,2013-02-24 21:20:00,
2013-02-24 16:25:00,34.0,23.1,29.78,SSW,210,3.1,5.8,64,0.00,,OVC043,0.04,VWS V13.00,2013-02-24 21:25:00,
2013-02-24 16:30:00,34.0,23.1,29.78,South,180,4.0,5.8,64,0.00,,OVC043,0.04,VWS V13.00,2013-02-24 21:30:00,
2013-02-24 16:35:00,34.0,23.1,29.78,NW,321,0.0,6.3,64,0.00,,OVC043,0.04,VWS V13.00,2013-02-24 21:35:00,
2013-02-24 16:40:00,34.0,23.1,29.78,WSW,245,3.1,6.3,64,0.00,,OVC050,0.04,VWS V13.00,2013-02-24 21:40:00,
2013-02-24 16:45:00,33.8,22.5,29.78,SSW,208,2.7,6.3,63,0.00,,OVC050,0.04,VWS V13.00,2013-02-24 21:45:00,
2013-02-24 16:50:00,33.8,22.5,29.78,WSW,255,0.0,6.3,63,0.00,,OVC050,0.04,VWS V13.00,2013-02-24 21:50:00,
2013-02-24 16:55:00,33.8,22.5,29.78,West,266,0.0,6.3,63,0.00,,OVC050,0.04,VWS V13.00,2013-02-24 21:55:00,
2013-02-24 17:00:00,33.8,22.2,29.81,NW,309,3.1,6.3,62,0.00,,OVC050,0.04,VWS V13.00,2013-02-24 22:00:00,
2013-02-24 17:05:00,33.6,21.6,29.81,West,275,6.3,8.3,61,0.00,,OVC050,0.04,VWS V13.00,2013-02-24 22:05:00,
2013-02-24 17:10:00,33.3,20.9,29.81,East,99,3.1,8.3,60,0.00,,OVC050,0.04,VWS V13.00,2013-02-24 22:10:00,
2013-02-24 17:15:00,33.3,20.9,29.81,SE,125,2.7,10.1,60,0.00,,OVC050,0.04,VWS V13.00,2013-02-24 22:15:00,
2013-02-24 17:20:00,33.3,20.5,29.81,NE,41,0.0,0.0,59,0.00,,OVC050,0.04,VWS V13.00,2013-02-24 22:20:00,
2013-02-24 17:25:00,33.3,20.5,29.81,North,353,0.0,0.0,59,0.00,,OVC050,0.04,VWS V13.00,2013-02-24 22:25:00,
2013-02-24 17:30:00,33.3,20.1,29.81,West,259,0.0,0.0,58,0.00,,OVC050,0.04,VWS V13.00,2013-02-24 22:30:00,
2013-02-24 17:35:00,33.1,19.9,29.81,SE,131,0.0,0.0,58,0.00,,OVC048,0.04,VWS V13.00,2013-02-24 22:35:00,
2013-02-24 17:40:00,32.9,19.8,29.81,WNW,300,0.0,0.0,58,0.00,,OVC048,0.04,VWS V13.00,2013-02-24 22:40:00,
2013-02-24 17:45:00,32.7,19.6,29.81,WSW,249,0.0,0.0,58,0.00,,OVC048,0.04,VWS V13.00,2013-02-24 22:45:00,
2013-02-24 17:50:00,32.5,19.4,29.81,North,3,0.0,0.0,58,0.00,,OVC048,0.04,VWS V13.00,2013-02-24 22:50:00,
2013-02-24 17:56:00,32.2,19.1,29.81,NW,311,0.0,0.0,58,0.00,,OVC048,0.04,VWS V13.00,2013-02-24 22:56:00,
2013-02-24 18:01:00,32.2,19.1,29.84,West,277,0.0,0.0,58,0.00,,OVC048,0.04,VWS V13.00,2013-02-24 23:01:00,
2013-02-24 18:06:00,32.2,18.7,29.84,West,260,0.0,0.0,57,0.00,,OVC048,0.04,VWS V13.00,2013-02-24 23:06:00,
2013-02-24 18:11:00,32.2,18.7,29.84,SW,217,0.0,0.0,57,0.00,,OVC048,0.04,VWS V13.00,2013-02-24 23:11:00,
2013-02-24 18:16:00,31.8,18.3,29.84,West,277,0.0,0.0,57,0.00,,OVC048,0.04,VWS V13.00,2013-02-24 23:16:00,
2013-02-24 18:21:00,31.6,18.6,29.84,SW,232,0.0,0.0,58,0.00,,OVC048,0.04,VWS V13.00,2013-02-24 23:21:00,
2013-02-24 18:26:00,32.0,18.9,29.84,WNW,293,0.0,0.0,58,0.00,,OVC048,0.04,VWS V13.00,2013-02-24 23:26:00,
2013-02-24 18:31:00,32.0,18.9,29.84,West,268,0.0,0.0,58,0.00,,OVC048,0.04,VWS V13.00,2013-02-24 23:31:00,
2013-02-24 18:36:00,32.0,18.9,29.84,NW,325,0.0,0.0,58,0.00,,OVC110,0.04,VWS V13.00,2013-02-24 23:36:00,
2013-02-24 18:41:00,32.0,18.9,29.84,NNE,16,0.0,0.0,58,0.00,,OVC110,0.04,VWS V13.00,2013-02-24 23:41:00,
2013-02-24 18:46:00,31.6,18.6,29.84,NNW,344,0.0,0.0,58,0.00,,OVC110,0.04,VWS V13.00,2013-02-24 23:46:00,
2013-02-24 18:51:00,31.6,18.6,29.84,SE,124,0.0,0.0,58,0.00,,OVC110,0.04,VWS V13.00,2013-02-24 23:51:00,
2013-02-24 18:56:00,31.5,18.4,29.84,NW,324,0.0,0.0,58,0.00,,OVC110,0.04,VWS V13.00,2013-02-24 23:56:00,
2013-02-24 19:01:00,31.5,18.4,29.87,East,96,0.0,0.0,58,0.00,,OVC110,0.04,VWS V13.00,2013-02-25 00:01:00,
2013-02-24 19:06:00,31.1,18.5,29.87,North,1,0.0,0.0,59,0.00,,FEW110,0.04,VWS V13.00,2013-02-25 00:06:00,
2013-02-24 19:11:00,31.1,18.5,29.87,ESE,111,0.0,0.0,59,0.00,,FEW110,0.04,VWS V13.00,2013-02-25 00:11:00,
2013-02-24 19:16:00,30.9,18.3,29.87,WSW,237,0.0,0.0,59,0.00,,FEW110,0.04,VWS V13.00,2013-02-25 00:16:00,
2013-02-24 19:22:00,30.6,18.0,29.87,SSW,197,0.0,0.0,59,0.00,,FEW110,0.04,VWS V13.00,2013-02-25 00:22:00,
2013-02-24 19:27:00,30.7,18.1,29.87,NNE,20,0.0,0.0,59,0.00,,FEW110,0.04,VWS V13.00,2013-02-25 00:27:00,
2013-02-24 19:32:00,30.4,17.8,29.87,NW,308,0.0,0.0,59,0.00,,FEW110,0.04,VWS V13.00,2013-02-25 00:32:00,
2013-02-24 19:37:00,30.4,17.8,29.87,WNW,293,0.0,0.0,59,0.00,,FEW110,0.04,VWS V13.00,2013-02-25 00:37:00,
2013-02-24 19:42:00,30.2,17.6,29.87,NNW,333,0.0,0.0,59,0.00,,FEW110,0.04,VWS V13.00,2013-02-25 00:42:00,
2013-02-24 19:47:00,30.2,17.6,29.87,ENE,76,0.0,0.0,59,0.00,,FEW110,0.04,VWS V13.00,2013-02-25 00:47:00,
2013-02-24 19:52:00,30.0,17.4,29.87,SSW,196,0.0,0.0,59,0.00,,FEW110,0.04,VWS V13.00,2013-02-25 00:52:00,
2013-02-24 19:57:00,30.0,17.4,29.87,SSW,212,0.0,0.0,59,0.00,,FEW110,0.04,VWS V13.00,2013-02-25 00:57:00,
2013-02-24 20:02:00,29.8,17.3,29.90,SSE,160,0.0,0.0,59,0.00,,FEW110,0.04,VWS V13.00,2013-02-25 01:02:00,
2013-02-24 20:07:00,29.7,17.5,29.90,WNW,285,0.0,0.0,60,0.00,,FEW110,0.04,VWS V13.00,2013-02-25 01:07:00,
2013-02-24 20:12:00,29.8,17.7,29.90,East,92,0.0,0.0,60,0.00,,FEW110,0.04,VWS V13.00,2013-02-25 01:12:00,
2013-02-24 20:17:00,29.7,17.5,29.87,South,186,0.0,0.0,60,0.00,,FEW110,0.04,VWS V13.00,2013-02-25 01:17:00,
2013-02-24 20:22:00,29.8,17.7,29.87,NE,38,0.0,0.0,60,0.00,,FEW110,0.04,VWS V13.00,2013-02-25 01:22:00,
2013-02-24 20:27:00,29.8,17.3,29.87,SSE,157,0.0,0.0,59,0.00,,FEW110,0.04,VWS V13.00,2013-02-25 01:27:00,
2013-02-24 20:32:00,29.5,17.3,29.90,WNW,300,0.0,0.0,60,0.00,,CLR,0.04,VWS V13.00,2013-02-25 01:32:00,
2013-02-24 20:37:00,29.5,17.3,29.90,NNE,30,0.0,0.0,60,0.00,,CLR,0.04,VWS V13.00,2013-02-25 01:37:00,
2013-02-24 20:43:00,29.5,16.9,29.90,SW,216,0.0,0.0,59,0.00,,CLR,0.04,VWS V13.00,2013-02-25 01:43:00,
2013-02-24 20:48:00,29.5,16.9,29.90,WNW,302,0.0,0.0,59,0.00,,CLR,0.04,VWS V13.00,2013-02-25 01:48:00,
2013-02-24 20:53:00,29.5,16.9,29.90,West,259,0.0,0.0,59,0.00,,CLR,0.04,VWS V13.00,2013-02-25 01:53:00,
2013-02-24 20:58:00,29.3,16.8,29.90,South,191,0.0,0.0,59,0.00,,CLR,0.04,VWS V13.00,2013-02-25 01:58:00,
2013-02-24 21:03:00,29.3,16.8,29.90,NW,318,0.0,0.0,59,0.00,,CLR,0.04,VWS V13.00,2013-02-25 02:03:00,
2013-02-24 21:08:00,29.3,16.8,29.90,North,353,0.0,0.0,59,0.00,,CLR,0.04,VWS V13.00,2013-02-25 02:08:00,
2013-02-24 21:13:00,29.3,17.1,29.90,North,349,0.0,0.0,60,0.00,,CLR,0.04,VWS V13.00,2013-02-25 02:13:00,
2013-02-24 21:18:00,28.9,16.8,29.90,NNE,23,0.0,0.0,60,0.00,,CLR,0.04,VWS V13.00,2013-02-25 02:18:00,
2013-02-24 21:23:00,28.9,16.8,29.90,NNE,17,0.0,0.0,60,0.00,,CLR,0.04,VWS V13.00,2013-02-25 02:23:00,
2013-02-24 21:28:00,29.1,17.0,29.90,WSW,246,0.0,0.0,60,0.00,,CLR,0.04,VWS V13.00,2013-02-25 02:28:00,
2013-02-24 21:33:00,28.9,16.8,29.90,NNE,19,0.0,0.0,60,0.00,,CLR,0.04,VWS V13.00,2013-02-25 02:33:00,
2013-02-24 21:38:00,29.1,17.0,29.90,NNE,14,0.0,0.0,60,0.00,,CLR,0.04,VWS V13.00,2013-02-25 02:38:00,
2013-02-24 21:43:00,28.9,16.8,29.90,ENE,64,0.0,0.0,60,0.00,,CLR,0.04,VWS V13.00,2013-02-25 02:43:00,
2013-02-24 21:48:00,28.6,16.5,29.90,SW,230,0.0,0.0,60,0.00,,CLR,0.04,VWS V13.00,2013-02-25 02:48:00,
2013-02-24 21:53:00,28.6,16.5,29.90,South,187,0.0,0.0,60,0.00,,CLR,0.04,VWS V13.00,2013-02-25 02:53:00,
2013-02-24 21:58:00,28.4,16.7,29.90,ENE,77,0.0,0.0,61,0.00,,CLR,0.04,VWS V13.00,2013-02-25 02:58:00,
2013-02-24 22:03:00,28.4,16.7,29.93,North,2,0.0,0.0,61,0.00,,CLR,0.04,VWS V13.00,2013-02-25 03:03:00,
2013-02-24 22:08:00,28.4,17.1,29.93,NNE,33,0.0,0.0,62,0.00,,CLR,0.04,VWS V13.00,2013-02-25 03:08:00,
2013-02-24 22:14:00,28.4,17.1,29.93,ESE,111,0.0,0.0,62,0.00,,CLR,0.04,VWS V13.00,2013-02-25 03:14:00,
2013-02-24 22:19:00,28.6,17.2,29.93,NNW,335,0.0,0.0,62,0.00,,CLR,0.04,VWS V13.00,2013-02-25 03:19:00,
2013-02-24 22:24:00,28.9,17.6,29.93,WSW,251,0.0,0.0,62,0.00,,CLR,0.04,VWS V13.00,2013-02-25 03:24:00,
2013-02-24 22:29:00,29.3,17.5,29.93,NW,321,0.0,0.0,61,0.00,,CLR,0.04,VWS V13.00,2013-02-25 03:29:00,
2013-02-24 22:34:00,29.3,17.5,29.93,East,79,0.0,0.0,61,0.00,,CLR,0.04,VWS V13.00,2013-02-25 03:34:00,
2013-02-24 22:39:00,28.9,17.2,29.93,ENE,71,0.0,0.0,61,0.00,,CLR,0.04,VWS V13.00,2013-02-25 03:39:00,
2013-02-24 22:44:00,28.9,16.8,29.93,NW,325,0.0,0.0,60,0.00,,CLR,0.04,VWS V13.00,2013-02-25 03:44:00,
2013-02-24 22:49:00,28.8,16.6,29.93,NW,304,0.0,0.0,60,0.00,,CLR,0.04,VWS V13.00,2013-02-25 03:49:00,
2013-02-24 22:54:00,28.6,16.5,29.93,SW,221,0.0,0.0,60,0.00,,CLR,0.04,VWS V13.00,2013-02-25 03:54:00,
2013-02-24 22:59:00,28.4,16.7,29.93,SSE,159,0.0,0.0,61,0.00,,CLR,0.04,VWS V13.00,2013-02-25 03:59:00,
2013-02-24 23:04:00,28.4,16.7,29.93,NNW,334,0.0,0.0,61,0.00,,CLR,0.04,VWS V13.00,2013-02-25 04:04:00,
2013-02-24 23:09:00,28.2,16.5,29.93,SSE,156,0.0,0.0,61,0.00,,CLR,0.04,VWS V13.00,2013-02-25 04:09:00,
2013-02-24 23:14:00,28.0,16.3,29.93,NE,35,0.0,0.0,61,0.00,,CLR,0.04,VWS V13.00,2013-02-25 04:14:00,
2013-02-24 23:20:00,28.0,16.7,29.93,NNW,328,0.0,0.0,62,0.00,,CLR,0.04,VWS V13.00,2013-02-25 04:20:00,
2013-02-24 23:25:00,28.2,16.9,29.93,North,357,0.0,0.0,62,0.00,,CLR,0.04,VWS V13.00,2013-02-25 04:25:00,
2013-02-24 23:30:00,27.9,16.5,29.93,WNW,301,0.0,0.0,62,0.00,,CLR,0.04,VWS V13.00,2013-02-25 04:30:00,
2013-02-24 23:35:00,28.0,16.7,29.93,NNE,25,0.0,0.0,62,0.00,,CLR,0.04,VWS V13.00,2013-02-25 04:35:00,
2013-02-24 23:40:00,27.9,16.5,29.93,ESE,122,0.0,0.0,62,0.00,,CLR,0.04,VWS V13.00,2013-02-25 04:40:00,
2013-02-24 23:45:00,27.9,16.5,29.93,ESE,122,0.0,0.0,62,0.00,,CLR,0.04,VWS V13.00,2013-02-25 04:45:00,
2013-02-24 23:50:00,27.5,16.6,29.93,ESE,122,0.0,0.0,63,0.00,,CLR,0.04,VWS V13.00,2013-02-25 04:50:00,
2013-02-24 23:55:00,27.5,16.6,29.93,NW,319,0.0,0.0,63,0.00,,CLR,0.04,VWS V13.00,2013-02-25 04:55:00,